Chicopee, MA

6:13 PM EST on February 23, 2017 (GMT -0500)
Westover Air Reserve Base / Metropolitan Airport

Weather History for KCEF - June, 2013

Change the Weather History Date:

Saturday, June 8, 2013

  Actual Average Record
Temperature  
Mean Temperature 64 °F -  
Max Temperature 76 °F 72 °F 92 °F (2008)
Min Temperature 51 °F 53 °F 42 °F (2002)
Degree Days  
Heating Degree Days 2    
Growing Degree Days 14 (Base 50)    
Moisture  
Dew Point 54 °F    
Average Humidity 90    
Maximum Humidity 100    
Minimum Humidity 58    
Precipitation  
Precipitation 0.85 in - - ()
Sea Level Pressure  
Sea Level Pressure 29.76 in    
Wind  
Wind Speed 10 mph (North)    
Max Wind Speed 15 mph    
Max Gust Speed -    
Visibility 8 miles    
Events Rain    
Averages and records for this station are not official NWS values.
T = Trace of Precipitation, MM = Missing Value Source: NWS Daily Summary

Daily Weather History Graph

Daily Weather History Graph

Search for Another Location

Airport or City:

Trip Planner

Search our weather history database for the weather conditions in past years. The results will help you decide how hot, cold, wet, or windy it might be!

Date:

Astronomy

Jun. 08, 2013 Rise Set
Actual Time 5:13 AM EDT 8:24 PM EDT
Civil Twilight 4:39 AM EDT 8:59 PM EDT
Nautical Twilight 3:55 AM EDT 9:43 PM EDT
Astronomical Twilight 3:02 AM EDT 10:36 PM EDT
Moon 5:20 AM EDT (6/8) 8:24 PM EDT (6/8)
Length of Visible Light 16h 19m
Length of Day
15h 10m
New Moon, 0% of the Moon is Illuminated
Jun 8
New Moon
Jun 16
First Quarter
Jun 23
Full
Jun 30
Last Quarter
Jul 8
New

Hourly Weather History & Observations

Time (EDT) Temp. Dew Point Humidity Pressure Visibility Wind Dir Wind Speed Gust Speed Precip Events Conditions
12:04 AM 53.6 °F 53.6 °F 100% 29.78 in 9.0 mi NNE 11.5 mph - N/A Rain Light Rain
12:07 AM 53.6 °F 53.6 °F 100% 29.78 in 9.0 mi NE 9.2 mph - N/A Rain Light Rain
12:10 AM 53.6 °F 53.6 °F 100% 29.78 in 8.0 mi NE 10.4 mph - N/A Rain Rain
12:18 AM 53.6 °F 51.8 °F 94% 29.76 in 5.0 mi NE 15.0 mph - N/A Rain Rain
12:23 AM 53.6 °F 51.8 °F 94% 29.74 in 5.0 mi NE 9.2 mph - N/A Rain Heavy Rain
12:25 AM 53.6 °F 51.8 °F 94% 29.76 in 4.0 mi NNE 8.1 mph - N/A Rain Heavy Rain
12:35 AM 53.6 °F 51.8 °F 94% 29.76 in 6.0 mi NE 9.2 mph - N/A Rain Rain
12:39 AM 53.6 °F 51.8 °F 94% 29.75 in 6.0 mi NNE 12.7 mph - N/A Rain Rain
12:40 AM 53.6 °F 51.8 °F 94% 29.75 in 6.0 mi NNE 11.5 mph - N/A Rain Rain
12:43 AM 53.6 °F 51.8 °F 94% 29.75 in 6.0 mi NNE 5.8 mph - N/A Rain Rain
12:46 AM 53.6 °F 51.8 °F 94% 29.76 in 6.0 mi NNE 6.9 mph - N/A Rain Rain
12:52 AM 53.6 °F 51.8 °F 94% 29.76 in 4.0 mi North 6.9 mph - N/A Rain Light Rain
12:54 AM 53.6 °F 51.8 °F 94% 29.77 in 2.5 mi North 5.8 mph - N/A Rain Heavy Rain
12:57 AM 53.6 °F 51.8 °F 94% 29.77 in 2.5 mi NNE 8.1 mph - N/A Rain Heavy Rain
12:58 AM 53.6 °F 51.8 °F 94% 29.78 in 2.0 mi NNE 9.2 mph - 0.24 in Rain Heavy Rain
1:00 AM 53.6 °F 51.8 °F 94% 29.76 in 2.0 mi NNE 9.2 mph - N/A Rain Heavy Rain
1:01 AM 53.6 °F 51.8 °F 94% 29.76 in 2.5 mi NNE 9.2 mph - N/A Rain Heavy Rain
1:04 AM 53.6 °F 51.8 °F 94% 29.76 in 3.0 mi NE 8.1 mph - N/A Rain Heavy Rain
1:05 AM 53.6 °F 51.8 °F 94% 29.76 in 3.0 mi NNE 9.2 mph - N/A Rain Heavy Rain
1:51 AM 53.6 °F 51.8 °F 94% 29.74 in 7.0 mi NNE 8.1 mph - N/A Rain Light Rain
1:55 AM 51.8 °F 51.8 °F 100% 29.73 in 4.0 mi NNE 10.4 mph - N/A Rain Light Rain
1:58 AM 51.8 °F 51.8 °F 100% 29.75 in 2.5 mi NNE 13.8 mph - 0.21 in Rain Heavy Rain
2:05 AM 51.8 °F 51.8 °F 100% 29.73 in 3.0 mi NE 11.5 mph - N/A Rain Rain
2:29 AM 51.8 °F 51.8 °F 100% 29.71 in 7.0 mi NNE 11.5 mph - N/A   Light Drizzle
2:58 AM 52.3 °F 51.8 °F 98% 29.71 in 10.0 mi NNE 10.4 mph - 0.05 in   Light Drizzle
3:02 AM 51.8 °F 51.8 °F 100% 29.69 in 10.0 mi NNE 11.5 mph - N/A   Light Drizzle
3:03 AM 51.8 °F 51.8 °F 100% 29.69 in 10.0 mi NNE 10.4 mph - N/A   Overcast
3:06 AM 51.8 °F 51.8 °F 100% 29.69 in 9.0 mi NNE 10.4 mph - N/A Rain Light Rain
3:34 AM 51.8 °F 51.8 °F 100% 29.68 in 8.0 mi NNE 13.8 mph - N/A Rain Light Rain
3:45 AM 51.8 °F 51.8 °F 100% 29.67 in 7.0 mi NNE 11.5 mph - N/A Rain Light Rain
3:53 AM 51.8 °F 51.8 °F 100% 29.67 in 6.0 mi NNE 10.4 mph - N/A Rain Light Rain
3:58 AM 52.2 °F 51.6 °F 98% 29.69 in 4.0 mi NE 10.4 mph - 0.03 in Rain Rain
4:13 AM 51.8 °F 51.8 °F 100% 29.66 in 5.0 mi NNE 9.2 mph - N/A Rain Rain
4:58 AM 52.3 °F 51.8 °F 98% 29.67 in 5.0 mi North 11.5 mph - 0.20 in Rain Heavy Rain
5:39 AM 53.6 °F 51.8 °F 94% 29.66 in 10.0 mi North 12.7 mph - N/A Rain Light Rain
5:56 AM 53.6 °F 51.8 °F 94% 29.65 in 10.0 mi NNE 12.7 mph - N/A   Light Drizzle
5:57 AM 53.6 °F 51.8 °F 94% 29.65 in 10.0 mi NNE 12.7 mph - N/A   Overcast
5:58 AM 53.6 °F 51.8 °F 94% 29.67 in 10.0 mi NNE 13.8 mph - 0.10 in   Overcast
6:01 AM 53.6 °F 51.8 °F 94% 29.65 in 10.0 mi NNE 13.8 mph - N/A Rain Light Rain
6:06 AM 53.6 °F 51.8 °F 94% 29.66 in 10.0 mi North 13.8 mph - N/A Rain Light Rain
6:17 AM 53.6 °F 51.8 °F 94% 29.66 in 10.0 mi NNE 11.5 mph - N/A Rain Light Rain
6:19 AM 53.6 °F 51.8 °F 94% 29.66 in 10.0 mi NNE 11.5 mph - N/A Rain Light Rain
6:20 AM 53.6 °F 51.8 °F 94% 29.66 in 10.0 mi NNE 11.5 mph - N/A Rain Light Rain
6:22 AM 53.6 °F 51.8 °F 94% 29.66 in 10.0 mi NNE 10.4 mph - N/A Rain Light Rain
6:34 AM 53.6 °F 53.6 °F 100% 29.67 in 10.0 mi North 10.4 mph - N/A   Overcast
6:43 AM 53.6 °F 53.6 °F 100% 29.68 in 10.0 mi North 10.4 mph - N/A   Overcast
6:46 AM 53.6 °F 53.6 °F 100% 29.67 in 10.0 mi North 9.2 mph - N/A   Overcast
6:49 AM 53.6 °F 53.6 °F 100% 29.67 in 10.0 mi North 11.5 mph - N/A   Overcast
6:58 AM 53.8 °F 53.2 °F 98% 29.70 in 10.0 mi NNW 11.5 mph - 0.01 in   Overcast
7:00 AM 53.6 °F 53.6 °F 100% 29.68 in 10.0 mi North 10.4 mph - N/A   Overcast
7:03 AM 53.6 °F 53.6 °F 100% 29.68 in 10.0 mi NNW 12.7 mph - N/A   Overcast
7:19 AM 53.6 °F 53.6 °F 100% 29.70 in 10.0 mi NNW 10.4 mph - N/A   Overcast
7:24 AM 53.6 °F 53.6 °F 100% 29.70 in 10.0 mi NNW 10.4 mph - N/A Rain Light Rain
7:38 AM 55.4 °F 53.6 °F 94% 29.71 in 10.0 mi NNW 10.4 mph - N/A   Overcast
7:50 AM 55.4 °F 53.6 °F 94% 29.72 in 10.0 mi NNW 10.4 mph - N/A   Overcast
7:57 AM 55.4 °F 55.4 °F 100% 29.72 in 10.0 mi North 9.2 mph - N/A   Overcast
7:58 AM 55.4 °F 55.4 °F 100% 29.74 in 10.0 mi North 10.4 mph - 0.00 in   Overcast
8:01 AM 55.4 °F 55.4 °F 100% 29.72 in 10.0 mi NNW 10.4 mph - N/A   Overcast
8:02 AM 55.4 °F 55.4 °F 100% 29.72 in 10.0 mi NNW 10.4 mph - N/A   Overcast
8:05 AM 55.4 °F 55.4 °F 100% 29.73 in 10.0 mi NNW 9.2 mph - N/A   Overcast
8:35 AM 59.0 °F 57.2 °F 94% 29.75 in 10.0 mi North 9.2 mph - N/A   Overcast
8:46 AM 59.0 °F 55.4 °F 88% 29.75 in 10.0 mi NNW 10.4 mph - N/A   Overcast
8:58 AM 59.9 °F 56.7 °F 89% 29.78 in 10.0 mi NNW 9.2 mph - N/A   Mostly Cloudy
8:59 AM 60.8 °F 57.2 °F 88% 29.76 in 10.0 mi NNW 6.9 mph - N/A   Mostly Cloudy
9:55 AM 64.4 °F 57.2 °F 77% 29.78 in 10.0 mi NW 9.2 mph - N/A   Mostly Cloudy
9:58 AM 64.6 °F 57.2 °F 77% 29.80 in 10.0 mi NW 8.1 mph - 0.01 in   Mostly Cloudy
10:22 AM 66.2 °F 57.2 °F 73% 29.78 in 10.0 mi NW 5.8 mph - N/A   Scattered Clouds
10:44 AM 68.0 °F 57.2 °F 68% 29.80 in 10.0 mi Variable 5.8 mph - N/A   Mostly Cloudy
10:58 AM 68.5 °F 59.0 °F 72% 29.82 in 10.0 mi Variable 3.5 mph - N/A   Mostly Cloudy
11:04 AM 68.0 °F 59.0 °F 73% 29.80 in 10.0 mi SW 6.9 mph - N/A   Scattered Clouds
11:58 AM 73.2 °F 60.4 °F 64% 29.84 in 10.0 mi West 12.7 mph - N/A   Partly Cloudy
12:58 PM 74.3 °F 60.3 °F 61% 29.86 in 10.0 mi West 9.2 mph - N/A   Clear
1:58 PM 76.1 °F 60.4 °F 58% 29.87 in 10.0 mi West 13.8 mph - N/A   Partly Cloudy
2:58 PM 74.1 °F 60.1 °F 61% 29.89 in 10.0 mi West 12.7 mph - N/A   Partly Cloudy
3:58 PM 74.7 °F 59.9 °F 60% 29.91 in 10.0 mi West 10.4 mph - N/A   Scattered Clouds
4:58 PM 73.0 °F 60.1 °F 64% 29.93 in 10.0 mi WNW 8.1 mph - N/A   Scattered Clouds
5:58 PM 71.8 °F 60.6 °F 68% 29.93 in 10.0 mi NW 5.8 mph - N/A   Scattered Clouds
6:58 PM 71.1 °F 59.4 °F 66% 29.96 in 10.0 mi WNW 6.9 mph - N/A   Mostly Cloudy
7:58 PM 69.8 °F 58.1 °F 66% 29.98 in 10.0 mi West 9.2 mph - N/A   Mostly Cloudy
8:58 PM 66.9 °F 57.0 °F 70% 29.99 in 10.0 mi WNW 4.6 mph - N/A   Mostly Cloudy
9:58 PM 65.3 °F 57.0 °F 75% 30.02 in 10.0 mi West 3.5 mph - N/A   Scattered Clouds
10:58 PM 63.7 °F 56.8 °F 78% 30.04 in 10.0 mi West 3.5 mph - N/A   Mostly Cloudy
11:58 PM 62.2 °F 56.7 °F 82% 30.05 in 10.0 mi NNW 3.5 mph - N/A   Partly Cloudy